Location: Charlottesville
(38.0290°N, 78.4770°W)
Time: 23:11:02
(UTC-04:00)

ISS - Visible Passes

Search period start: 18 September 2021 00:00
Search period end: 28 September 2021 00:00
Orbit: 419 x 423 km, 51.6° (Epoch: 19 September)

Date Brightness Start Highest point End Pass type
(mag) Time Alt. Az. Time Alt. Az. Time Alt. Az.
18 Sep -1.3 21:04:25 10° WNW 21:07:00 20° NNW 21:08:34 15° N visible
19 Sep -1.8 20:17:00 10° W 20:19:58 28° NNW 20:22:57 10° NNE visible
20 Sep -0.8 21:09:16 10° NW 21:10:32 12° NNW 21:11:49 10° N visible
21 Sep -1.0 20:21:24 10° WNW 20:23:23 15° NNW 20:25:23 10° NNE visible
22 Sep -1.3 19:33:45 10° WNW 19:36:17 19° NNW 19:38:49 10° NNE visible
24 Sep -0.9 19:38:37 10° NW 19:39:48 11° NNW 19:40:59 10° N visible
